GW2924 Weather Reports


Display with metric or nautical units.
time (UTC)temp
F
wind
direction
speed
MPH
gust
MPH
rain 1hr
in
rain 24hr
in
rain mn
in
humidity
%
barometer
mb
20260507115055 38 264 0.0 1.0 0.00 0.00 0.00 70 1013.0
20260507114605 37 264 0.0 2.0 0.00 0.00 0.00 70 1012.9
20260507114059 37 266 0.0 3.0 0.00 0.00 0.00 69 1012.9
20260507113552 37 0 1.0 5.0 0.00 0.00 0.00 68 1012.9
20260507113056 37 262 2.0 5.0 0.00 0.00 0.00 69 1012.8
20260507112555 35 276 2.0 4.0 0.00 0.00 0.00 74 1012.9
20260507112056 33 187 0.0 3.0 0.00 0.00 0.00 76 1012.9
20260507111554 33 275 1.0 3.0 0.00 0.00 0.00 77 1012.9
20260507111053 32 279 1.0 3.0 0.00 0.00 0.00 77 1012.8
20260507110555 32 287 0.0 3.0 0.00 0.00 0.00 76 1012.9
20260507110055 31 147 1.0 3.0 0.00 0.00 0.00 77 1013.0
20260507105556 31 209 1.0 3.0 0.00 0.00 0.00 78 1013.1
20260507105052 30 257 2.0 3.0 0.00 0.00 0.00 80 1013.0
20260507104600 29 253 0.0 2.0 0.00 0.00 0.00 82 1013.1
20260507104054 28 256 0.0 2.0 0.00 0.00 0.00 81 1013.0
20260507103554 28 187 0.0 2.0 0.00 0.00 0.00 81 1013.0
20260507103103 28 269 0.0 2.0 0.00 0.00 0.00 81 1013.1
20260507102555 28 262 0.0 2.0 0.00 0.00 0.00 80 1013.0
20260507102055 28 250 1.0 2.0 0.00 0.00 0.00 81 1013.0
20260507101600 27 259 1.0 2.0 0.00 0.00 0.00 80 1013.0
20260507101055 27 200 0.0 2.0 0.00 0.00 0.00 80 1013.1
20260507100555 28 277 1.0 2.0 0.00 0.00 0.00 81 1013.1
20260507100106 27 266 0.0 2.0 0.00 0.00 0.00 80 1013.1
20260507095556 28 271 1.0 2.0 0.00 0.00 0.00 81 1013.3
20260507095056 28 247 1.0 2.0 0.00 0.00 0.00 80 1013.1
20260507094600 27 245 0.0 2.0 0.00 0.00 0.00 80 1013.2
20260507094056 27 238 0.0 2.0 0.00 0.00 0.00 80 1013.3
20260507093555 27 235 0.0 3.0 0.00 0.00 0.00 79 1013.3
20260507093101 28 276 0.0 3.0 0.00 0.00 0.00 79 1013.3
20260507092557 28 215 1.0 3.0 0.00 0.00 0.00 79 1013.3
20260507092055 28 214 1.0 3.0 0.00 0.00 0.00 79 1013.4
20260507091559 28 264 1.0 2.0 0.00 0.00 0.00 79 1013.4
20260507091053 28 242 0.0 2.0 0.00 0.00 0.00 78 1013.3
20260507090552 28 201 0.0 2.0 0.00 0.00 0.00 78 1013.4
20260507090056 28 220 0.0 2.0 0.00 0.00 0.00 78 1013.5
20260507085557 28 264 0.0 2.0 0.00 0.00 0.00 78 1013.5
20260507085055 29 238 0.0 1.0 0.00 0.00 0.00 79 1013.5
20260507084557 29 255 0.0 2.0 0.00 0.00 0.00 79 1013.5
20260507084054 29 0 0.0 2.0 0.00 0.00 0.00 76 1013.5
20260507083555 30 0 1.0 2.0 0.00 0.00 0.00 76 1013.5
20260507083102 29 262 1.0 2.0 0.00 0.00 0.00 77 1013.5
20260507082552 29 272 0.0 2.0 0.00 0.00 0.00 77 1013.5
20260507082051 29 0 1.0 2.0 0.00 0.00 0.00 78 1013.6
20260507081554 29 264 1.0 2.0 0.00 0.00 0.00 79 1013.6
20260507081053 28 243 0.0 2.0 0.00 0.00 0.00 78 1013.6
20260507080552 29 225 1.0 2.0 0.00 0.00 0.00 78 1013.5
20260507080116 29 269 0.0 2.0 0.00 0.00 0.00 77 1013.5
20260507075556 29 200 1.0 2.0 0.00 0.00 0.00 78 1013.6
20260507075055 29 256 1.0 2.0 0.00 0.00 0.00 78 1013.6
20260507074601 29 252 0.0 2.0 0.00 0.00 0.00 77 1013.6
20260507074051 29 247 0.0 2.0 0.00 0.00 0.00 77 1013.7
20260507073555 29 238 0.0 2.0 0.00 0.00 0.00 76 1013.8
20260507073103 30 284 0.0 2.0 0.00 0.00 0.00 75 1013.8
20260507072551 30 265 0.0 2.0 0.00 0.00 0.00 74 1014.1
20260507072052 30 0 0.0 2.0 0.00 0.00 0.00 75 1014.1
20260507071604 31 247 1.0 2.0 0.00 0.00 0.00 75 1014.1
20260507071055 31 239 1.0 2.0 0.00 0.00 0.00 75 1014.1
20260507070555 31 0 0.0 2.0 0.00 0.00 0.00 74 1014.1
20260507070057 31 0 0.0 2.0 0.00 0.00 0.00 74 1014.2
20260507065554 31 234 0.0 1.0 0.00 0.00 0.00 74 1014.3
20260507065055 31 0 0.0 3.0 0.00 0.00 0.00 74 1014.3
20260507064558 32 179 1.0 3.0 0.00 0.00 0.00 74 1014.4
20260507064052 32 270 1.0 3.0 0.00 0.00 0.00 75 1014.4
20260507063551 32 196 0.0 2.0 0.00 0.00 0.00 75 1014.3
20260507063133 31 203 1.0 2.0 0.00 0.00 0.00 75 1014.3
20260507062556 31 0 0.0 1.0 0.00 0.00 0.00 75 1014.5
20260507062056 31 234 0.0 1.0 0.00 0.00 0.00 76 1014.4
20260507061559 31 0 0.0 1.0 0.00 0.00 0.00 76 1014.4
20260507061056 31 0 0.0 1.0 0.00 0.00 0.00 75 1014.5
20260507060556 31 0 0.0 1.0 0.00 0.00 0.00 76 1014.5
20260507055556 30 236 0.0 1.0 0.00 0.00 0.00 78 1014.5
20260507055057 30 224 0.0 1.0 0.00 0.00 0.00 78 1014.6
20260507054604 30 221 0.0 1.0 0.00 0.00 0.00 78 1014.5
20260507054056 30 0 0.0 1.0 0.00 0.00 0.00 75 1014.5
20260507053558 30 220 0.0 1.0 0.00 0.00 0.00 75 1014.5
20260507053057 30 0 0.0 1.0 0.00 0.00 0.00 77 1014.5
20260507052558 28 229 0.0 1.0 0.00 0.00 0.00 79 1014.6
20260507052057 28 0 0.0 0.0 0.00 0.00 0.00 82 1014.6
20260507051559 27 0 0.0 0.0 0.00 0.00 0.00 83 1014.5
20260507051053 27 0 0.0 0.0 0.00 0.00 0.00 81 1014.5
20260507050601 27 0 0.0 0.0 0.00 0.00 0.00 79 1014.4
20260507050056 28 0 0.0 0.0 0.00 0.00 0.00 79 1014.7
20260507045559 28 0 0.0 0.0 0.00 0.00 0.00 79 1014.7
20260507045054 28 0 0.0 0.0 0.00 0.00 0.00 80 1014.7
20260507044612 28 0 0.0 0.0 0.00 0.00 0.00 82 1014.7
20260507044053 27 0 0.0 0.0 0.00 0.00 0.00 84 1014.7
20260507043553 26 0 0.0 0.0 0.00 0.00 0.00 83 1014.7
20260507043059 27 0 0.0 0.0 0.00 0.00 0.00 82 1014.7
20260507042555 27 0 0.0 0.0 0.00 0.00 0.00 82 1014.8
20260507042053 27 0 0.0 0.0 0.00 0.00 0.00 81 1014.8
20260507041602 28 0 0.0 0.0 0.00 0.00 0.00 81 1014.9
20260507041054 28 0 0.0 0.0 0.00 0.00 0.00 79 1014.9
20260507040553 28 0 0.0 0.0 0.00 0.00 0.00 77 1015.0
20260507040104 28 0 0.0 0.0 0.00 0.00 0.00 76 1015.0
20260507035553 29 0 0.0 0.0 0.00 0.00 0.00 74 1015.1
20260507035053 29 0 0.0 0.0 0.00 0.00 0.00 72 1015.2
20260507034559 30 0 0.0 0.0 0.00 0.00 0.00 71 1015.2
20260507034053 31 0 0.0 0.0 0.00 0.00 0.00 71 1015.2
20260507033553 32 0 0.0 0.0 0.00 0.00 0.00 70 1015.3
20260507033101 33 0 0.0 0.0 0.00 0.00 0.00 68 1015.3
20260507032553 33 0 0.0 0.0 0.00 0.00 0.00 69 1015.3
20260507032053 33 0 0.0 0.0 0.00 0.00 0.00 68 1015.2
20260507031605 34 0 0.0 0.0 0.00 0.00 0.00 67 1015.3
20260507031053 34 0 0.0 0.0 0.00 0.00 0.00 68 1015.3
20260507030553 34 0 0.0 0.0 0.00 0.00 0.00 68 1015.4
20260507030107 35 0 0.0 0.0 0.00 0.00 0.00 68 1015.4
20260507025552 35 0 0.0 0.0 0.00 0.00 0.00 66 1015.4
20260507025053 35 0 0.0 0.0 0.00 0.00 0.00 65 1015.3
20260507024600 35 0 0.0 0.0 0.00 0.00 0.00 64 1015.4
20260507024053 36 0 0.0 0.0 0.00 0.00 0.00 62 1015.4
20260507023557 36 0 0.0 0.0 0.00 0.00 0.00 62 1015.5
20260507023058 36 0 0.0 0.0 0.00 0.00 0.00 62 1015.5
20260507022553 36 0 0.0 0.0 0.00 0.00 0.00 62 1015.6
20260507022053 36 0 0.0 0.0 0.00 0.00 0.00 61 1015.5
20260507021602 37 0 0.0 0.0 0.00 0.00 0.00 60 1015.5
20260507021053 38 0 0.0 0.0 0.00 0.00 0.00 60 1015.5
20260507020553 38 0 0.0 1.0 0.00 0.00 0.00 61 1015.4
20260507015552 38 0 0.0 1.0 0.00 0.00 0.00 58 1015.3
20260507015053 39 0 0.0 1.0 0.00 0.00 0.00 58 1015.3
20260507014607 39 0 0.0 1.0 0.00 0.00 0.00 58 1015.3
20260507014054 39 0 0.0 0.0 0.00 0.00 0.00 56 1015.1
20260507013554 40 0 0.0 1.0 0.00 0.00 0.00 55 1015.2
20260507013056 41 0 0.0 2.0 0.00 0.00 0.00 54 1015.1
20260507012553 42 282 0.0 2.0 0.00 0.00 0.00 53 1015.3
20260507012054 42 0 0.0 4.0 0.00 0.00 0.00 52 1015.2
20260507011604 43 0 1.0 4.0 0.00 0.00 0.00 51 1015.3
20260507011052 43 302 1.0 3.0 0.00 0.00 0.00 50 1015.4
20260507010552 43 279 1.0 6.0 0.00 0.00 0.00 52 1015.6
20260507010057 43 286 3.0 6.0 0.00 0.00 0.00 50 1015.5
20260507005554 44 304 3.0 6.0 0.00 0.00 0.00 50 1015.5
20260507005057 43 295 2.0 5.0 0.00 0.00 0.00 50 1015.4
20260507004554 43 300 1.0 5.0 0.00 0.00 0.00 51 1015.4
20260507004053 44 297 2.0 5.0 0.00 0.00 0.00 50 1015.4
20260507003556 44 281 1.0 11.0 0.00 0.00 0.00 50 1015.4
20260507003054 44 303 3.0 11.0 0.00 0.00 0.00 48 1015.3
20260507002553 44 292 3.0 7.0 0.00 0.00 0.00 50 1015.3
20260507002057 44 304 2.0 5.0 0.00 0.00 0.00 50 1015.2
20260507001615 44 292 3.0 7.0 0.00 0.00 0.00 50 1015.3
20260507001055 44 281 3.0 7.0 0.00 0.00 0.00 49 1015.3
20260507000555 44 296 4.0 7.0 0.00 0.00 0.00 49 1015.3
20260506235553 45 292 2.0 6.0 0.00 0.00 0.00 48 1015.2
20260506235053 45 293 2.0 6.0 0.00 0.00 0.00 49 1015.3
20260506234602 45 296 3.0 6.0 0.00 0.00 0.00 49 1015.3
20260506234055 45 301 1.0 5.0 0.00 0.00 0.00 50 1015.3
20260506233555 44 305 2.0 5.0 0.00 0.00 0.00 50 1015.3
20260506233056 44 309 2.0 5.0 0.00 0.00 0.00 49 1015.4
20260506232556 45 304 1.0 7.0 0.00 0.00 0.00 48 1015.4
20260506232056 45 287 3.0 7.0 0.00 0.00 0.00 49 1015.4
20260506231555 45 301 2.0 7.0 0.00 0.00 0.00 49 1015.4
20260506231053 45 288 3.0 7.0 0.00 0.00 0.00 49 1015.4
20260506230552 45 319 3.0 6.0 0.00 0.00 0.00 50 1015.4
20260506230058 45 331 2.0 6.0 0.00 0.00 0.00 48 1015.4
20260506225556 45 295 3.0 7.0 0.00 0.00 0.00 48 1015.4
20260506225053 46 319 3.0 7.0 0.00 0.00 0.00 47 1015.5
20260506224556 45 290 3.0 6.0 0.00 0.00 0.00 48 1015.5
20260506224055 45 269 2.0 7.0 0.00 0.00 0.00 50 1015.5
20260506223555 46 291 2.0 8.0 0.00 0.00 0.00 49 1015.5
20260506223055 46 255 4.0 10.0 0.00 0.00 0.00 47 1015.5
20260506222552 47 304 4.0 10.0 0.00 0.00 0.00 48 1015.6
20260506222056 47 299 5.0 10.0 0.00 0.00 0.00 45 1015.5
20260506221556 47 289 3.0 10.0 0.00 0.00 0.00 46 1015.6
20260506221055 47 318 5.0 10.0 0.00 0.00 0.00 48 1015.8
20260506220552 46 325 3.0 7.0 0.00 0.00 0.00 48 1015.6
20260506220107 47 5 3.0 8.0 0.00 0.00 0.00 48 1015.7
20260506215552 46 328 2.0 8.0 0.00 0.00 0.00 51 1015.6
20260506215053 45 296 3.0 7.0 0.00 0.00 0.00 50 1015.7
20260506214553 45 306 3.0 7.0 0.00 0.00 0.00 49 1015.7
20260506214053 45 266 3.0 7.0 0.00 0.00 0.00 51 1015.8
20260506213553 45 297 3.0 8.0 0.00 0.00 0.00 51 1015.9
20260506213101 45 288 3.0 9.0 0.00 0.00 0.00 51 1015.8
20260506212553 44 295 5.0 9.0 0.00 0.00 0.00 52 1015.8
20260506212055 45 287 4.0 8.0 0.00 0.00 0.00 52 1015.8
20260506211553 45 288 3.0 11.0 0.00 0.00 0.00 51 1015.9
20260506211059 44 301 2.0 11.0 0.00 0.00 0.00 55 1016.0
20260506210553 43 252 7.0 11.0 0.00 0.00 0.00 51 1016.1
20260506210110 44 8 4.0 9.0 0.00 0.00 0.00 52 1016.1
20260506205552 44 295 3.0 8.0 0.00 0.00 0.00 52 1016.1
20260506205055 43 302 5.0 8.0 0.00 0.00 0.00 52 1016.2
20260506204555 43 270 4.0 11.0 0.00 0.00 0.00 53 1016.2
20260506204052 43 311 5.0 11.0 0.00 0.00 0.00 53 1016.1
20260506203556 43 266 5.0 10.0 0.00 0.00 0.00 52 1016.1
20260506203140 43 290 5.0 10.0 0.00 0.00 0.00 52 1016.4
20260506202555 43 300 3.0 6.0 0.00 0.00 0.00 52 1016.2
20260506202052 44 248 3.0 7.0 0.00 0.00 0.00 51 1016.3
20260506201556 44 304 2.0 11.0 0.00 0.00 0.00 55 1016.3
20260506201052 43 302 2.0 11.0 0.00 0.00 0.00 57 1016.2
20260506200556 42 243 6.0 11.0 0.00 0.00 0.00 53 1016.3
20260506200055 42 295 4.0 8.0 0.00 0.00 0.00 53 1016.5
20260506195553 42 264 3.0 7.0 0.00 0.00 0.00 55 1016.4
20260506195058 42 290 3.0 7.0 0.00 0.00 0.00 55 1016.5
20260506194555 42 305 3.0 9.0 0.00 0.00 0.00 54 1016.5
20260506194053 42 324 4.0 9.0 0.00 0.00 0.00 52 1016.4
20260506193552 42 330 3.0 6.0 0.00 0.00 0.00 55 1016.5
20260506193053 42 335 3.0 6.0 0.00 0.00 0.00 54 1016.6
20260506192555 41 296 3.0 6.0 0.00 0.00 0.00 54 1016.6
20260506192055 41 273 2.0 6.0 0.00 0.00 0.00 53 1016.7
20260506191604 42 295 3.0 6.0 0.00 0.00 0.00 53 1016.7
20260506191055 42 287 3.0 8.0 0.00 0.00 0.00 54 1016.8
20260506190556 42 283 3.0 8.0 0.00 0.00 0.00 57 1016.7
20260506190057 42 269 3.0 7.0 0.00 0.00 0.00 56 1016.7
20260506185552 41 313 3.0 7.0 0.00 0.00 0.00 56 1016.7
20260506185053 41 293 3.0 8.0 0.00 0.00 0.00 55 1016.8
20260506184601 41 324 3.0 8.0 0.00 0.00 0.00 57 1016.9
20260506184053 41 281 3.0 7.0 0.00 0.00 0.00 56 1016.8
20260506183552 41 324 3.0 7.0 0.00 0.00 0.00 56 1016.8
20260506183058 40 311 4.0 7.0 0.00 0.00 0.00 56 1016.8
20260506182552 40 314 3.0 7.0 0.00 0.00 0.00 54 1016.8
20260506182052 40 283 4.0 9.0 0.00 0.00 0.00 54 1016.9
20260506181600 40 300 3.0 11.0 0.00 0.00 0.00 55 1016.8
20260506181053 41 264 3.0 11.0 0.00 0.00 0.00 55 1016.8
20260506180553 41 301 3.0 7.0 0.00 0.00 0.00 56 1016.8
20260506180058 41 331 3.0 7.0 0.00 0.00 0.00 54 1016.9
20260506175557 40 295 3.0 8.0 0.00 0.00 0.00 55 1016.9
20260506175055 40 296 5.0 10.0 0.00 0.00 0.00 54 1016.9
20260506174607 41 285 2.0 10.0 0.00 0.00 0.00 55 1016.8
20260506174053 41 323 4.0 10.0 0.00 0.00 0.00 54 1017.0
20260506173553 41 279 4.0 9.0 0.00 0.00 0.00 54 1017.0
20260506173056 41 291 4.0 9.0 0.00 0.00 0.00 53 1016.9
20260506172552 41 295 3.0 7.0 0.00 0.00 0.00 56 1017.0
20260506172053 41 303 3.0 6.0 0.00 0.00 0.00 53 1017.0
20260506171602 41 305 3.0 9.0 0.00 0.00 0.00 54 1017.1
20260506171052 41 304 3.0 9.0 0.00 0.00 0.00 54 1017.1
20260506170554 41 304 4.0 9.0 0.00 0.00 0.00 54 1017.1
20260506170103 41 334 2.0 9.0 0.00 0.00 0.00 56 1017.1
20260506165557 41 297 3.0 9.0 0.00 0.00 0.00 55 1017.1
20260506165055 41 290 4.0 8.0 0.00 0.00 0.00 57 1017.2
20260506164559 40 309 3.0 7.0 0.00 0.00 0.00 55 1017.1
20260506164052 40 287 3.0 7.0 0.00 0.00 0.00 58 1017.1
20260506163552 40 328 3.0 7.0 0.00 0.00 0.00 56 1017.2
20260506163126 40 289 2.0 5.0 0.00 0.00 0.00 55 1017.1
20260506162553 40 314 2.0 5.0 0.00 0.00 0.00 56 1017.1
20260506162053 40 304 2.0 6.0 0.00 0.00 0.00 56 1017.0
20260506161554 39 340 3.0 6.0 0.00 0.00 0.00 57 1017.1
20260506161055 39 276 2.0 6.0 0.00 0.00 0.00 56 1017.0
20260506160552 39 264 3.0 6.0 0.00 0.00 0.00 55 1017.0
20260506160056 39 282 2.0 5.0 0.00 0.00 0.00 56 1017.1
20260506155556 39 302 2.0 6.0 0.00 0.00 0.00 56 1017.0
20260506155055 39 293 3.0 7.0 0.00 0.00 0.00 56 1017.0
20260506154558 39 243 3.0 7.0 0.00 0.00 0.00 57 1017.1
20260506154055 39 290 4.0 8.0 0.00 0.00 0.00 57 1017.0
20260506153555 39 309 2.0 8.0 0.00 0.00 0.00 59 1017.0
20260506153119 39 297 4.0 8.0 0.00 0.00 0.00 57 1016.9
20260506152557 39 338 2.0 6.0 0.00 0.00 0.00 59 1016.8
20260506152054 38 288 2.0 6.0 0.00 0.00 0.00 59 1016.8
20260506151556 39 210 2.0 7.0 0.00 0.00 0.00 59 1016.8
20260506151054 38 301 3.0 7.0 0.00 0.00 0.00 59 1016.8
20260506150553 38 314 4.0 7.0 0.00 0.00 0.00 58 1016.8
20260506150057 39 288 3.0 7.0 0.00 0.00 0.00 59 1016.8
20260506145556 39 311 1.0 5.0 0.00 0.00 0.00 60 1016.8
20260506145055 38 290 2.0 5.0 0.00 0.00 0.00 59 1016.8
20260506144557 38 249 2.0 6.0 0.00 0.00 0.00 58 1016.7
20260506144053 38 306 2.0 6.0 0.00 0.00 0.00 61 1016.8
20260506143552 38 259 2.0 6.0 0.00 0.00 0.00 60 1016.8
20260506143056 38 276 2.0 6.0 0.00 0.00 0.00 59 1016.8
20260506142553 38 296 3.0 5.0 0.00 0.00 0.00 60 1016.7
20260506142053 38 295 1.0 5.0 0.00 0.00 0.00 62 1016.7
20260506141555 38 294 2.0 5.0 0.00 0.00 0.00 60 1016.8
20260506141053 38 293 2.0 5.0 0.00 0.00 0.00 61 1016.7
20260506140556 38 294 2.0 4.0 0.00 0.00 0.00 59 1016.7
20260506140054 38 264 2.0 4.0 0.00 0.00 0.00 60 1016.7
20260506135552 38 301 2.0 6.0 0.00 0.00 0.00 60 1016.5
20260506135052 38 233 2.0 6.0 0.00 0.00 0.00 60 1016.6
20260506134556 38 278 2.0 5.0 0.00 0.00 0.00 61 1016.5
20260506134055 38 283 2.0 5.0 0.00 0.00 0.00 61 1016.5
20260506133552 38 300 2.0 5.0 0.00 0.00 0.00 63 1016.5
20260506133055 38 284 2.0 5.0 0.00 0.00 0.00 62 1016.4
20260506132554 37 287 2.0 5.0 0.00 0.00 0.00 63 1016.4
20260506132052 37 303 2.0 5.0 0.00 0.00 0.00 64 1016.4
20260506131607 37 277 2.0 5.0 0.00 0.00 0.00 63 1016.4
20260506131052 37 290 2.0 5.0 0.00 0.00 0.00 64 1016.4
20260506130557 37 313 1.0 7.0 0.00 0.00 0.00 65 1016.4
20260506130054 37 308 2.0 7.0 0.00 0.00 0.00 65 1016.3
20260506125555 37 298 1.0 4.0 0.00 0.00 0.00 66 1016.2
20260506125055 37 303 2.0 4.0 0.00 0.00 0.00 65 1016.1
20260506124557 37 291 1.0 3.0 0.00 0.00 0.00 66 1016.0
20260506124055 37 293 1.0 3.0 0.00 0.00 0.00 64 1016.0
20260506123553 37 284 0.0 2.0 0.00 0.00 0.00 66 1015.8
20260506123112 36 0 0.0 2.0 0.00 0.00 0.00 66 1015.7
20260506122557 36 281 0.0 2.0 0.00 0.00 0.00 66 1015.6
20260506122059 36 344 1.0 4.0 0.00 0.00 0.00 67 1015.5
20260506121612 36 0 0.0 4.0 0.00 0.00 0.00 67 1015.5
20260506121057 36 0 0.0 1.0 0.00 0.00 0.00 67 1015.6
20260506120557 35 0 0.0 1.0 0.00 0.00 0.00 68 1015.6
20260506120058 35 0 0.0 2.0 0.00 0.00 0.00 70 1015.6
20260506115556 34 0 0.0 2.0 0.00 0.00 0.00 71 1015.6